#timestamp,LO_Frequency,Hit,StdDev 
1549332015.2,286047001.9,N
1549332035.1,286047003.9,N
1549332036.0,286047003.9,N
1549332055.8,286047001.8,N
1549332075.7,286047004.3,N
1549332095.5,286047006.0,N
1549332115.3,286047005.6,N
1549332135.2,286047007.6,N
1549332155.0,286047007.4,N
1549332155.9,286047007.4,N
1549332175.7,286047004.7,N
1549332195.6,286047005.1,N
1549332215.4,286047004.8,N
1549332235.3,286047006.9,N
1549332255.1,286047007.3,N
1549332275.8,286047008.8,N
1549332295.7,286047006.2,N
1549332315.5,286047010.8,Y
1549332335.4,286047004.7,P
1549332355.2,286047007.1,P
1549332375.0,286047007.6,P
1549332375.9,286047007.6,Y
1549332395.8,286046998.2,P
1549332415.6,286047001.0,N
1549332435.4,286047001.1,N
1549332455.3,286047000.9,N
1549332475.1,286047001.6,N
1549332495.9,286046998.6,N
1549332515.7,286046998.3,N
1549332535.5,286046998.1,N
1549332555.4,286047000.2,N
1549332575.2,286047000.9,N
1549332595.0,286047000.4,N
1549332596.0,286047000.4,N
1549332615.8,286047000.5,N
1549332635.6,286047000.5,N
1549332655.5,286047000.6,N
1549332675.3,286047000.9,N
1549332695.1,286047000.7,N
1549332715.9,286047000.3,N
1549332735.7,286046999.9,N
1549332755.6,286046999.9,N
1549332775.4,286047000.3,N
1549332795.2,286047000.3,N
1549332815.1,286047000.7,N
1549332816.0,286047000.7,N
1549332835.8,286047000.3,N
1549332855.7,286047001.1,N
1549332875.5,286047000.2,N
1549332895.3,286047002.5,N
1549332915.2,286047001.8,N
1549332935.9,286047001.7,N
1549332955.7,286047001.6,N
1549332975.6,286046999.7,N
1549332995.4,286046999.7,N
1549333015.3,286047000.1,N
1549333035.1,286047000.3,N
1549333036.0,286047000.3,N
1549333055.8,286046998.1,N
1549333075.7,286047000.5,N
1549333095.5,286047002.3,N
1549333115.3,286047004.3,Y
1549333135.2,286047001.9,P
1549333155.0,286047002.6,P
1549333155.9,286047002.6,P
1549333175.8,286047002.1,N
1549333195.6,286047002.1,N
1549333215.4,286047002.6,Y
1549333235.3,286046999.9,P
1549333255.1,286047001.0,N
1549333275.9,286047000.9,N
1549333295.7,286046999.8,N
1549333315.5,286046998.2,N
1549333335.4,286046999.6,N
1549333355.2,286046999.5,N
1549333375.0,286046998.4,N
1549333376.0,286046998.4,N
1549333395.8,286047000.7,N
1549333415.6,286047000.8,N
1549333435.5,286047000.1,N
1549333455.3,286047000.1,N
1549333475.2,286046999.7,N
1549333495.9,286047000.9,N
1549333515.7,286047000.1,N
1549333535.6,286047000.1,N
1549333555.4,286047002.4,N
1549333575.2,286046998.4,N
1549333595.1,286046998.1,N
1549333596.0,286046998.1,N
1549333615.8,286047000.5,N
1549333635.7,286046998.1,N
1549333655.5,286047001.2,N
1549333675.3,286046998.2,N
1549333695.2,286046999.3,N
1549333715.0,286046999.3,N
1549333715.9,286046999.3,N
1549333735.7,286046998.2,N
1549333755.6,286046998.3,N
1549333775.4,286046998.8,N
1549333795.3,286046998.9,N
1549333815.1,286046999.6,N
1549333816.0,286046999.6,N
1549333835.8,286046996.7,Y
1549333855.7,286046999.0,P
1549333875.5,286046999.0,P
1549333895.3,286046998.9,P
1549333915.2,286047001.2,Y
1549333935.0,286047002.7,P
1549333935.9,286047002.7,N
1549333955.8,286047002.8,N
1549333975.6,286047002.3,N
1549333995.4,286047002.8,N
1549334015.3,286047001.0,N
1549334035.1,286047000.9,N
1549334055.9,286047002.0,N
1549334075.7,286047002.8,N
1549334095.5,286046999.8,N
1549334115.4,286047002.1,N
1549334135.2,286047002.5,N
1549334155.0,286047004.1,Y
1549334155.9,286047004.1,P
1549334175.8,286047000.4,N
1549334195.6,286047001.1,N
1549334215.5,286046999.9,N
1549334235.3,286046999.8,N
1549334255.1,286047000.5,N
1549334275.9,286047000.0,N
1549334295.7,286047000.3,N
1549334315.5,286047002.0,N
1549334335.4,286047002.4,N
1549334355.2,286046999.8,N
1549334375.1,286047002.6,N
1549334376.0,286047002.6,N
1549334395.8,286047000.3,N
1549334415.6,286047001.2,N
1549334435.5,286046998.1,N
1549334455.3,286047001.0,N
1549334475.1,286046998.3,N
1549334495.9,286046998.7,N
1549334515.7,286046998.1,N
1549334535.6,286046999.0,N
1549334555.4,286047000.5,N
1549334575.2,286046999.8,N
1549334595.1,286046998.1,N
1549334596.0,286046998.1,N
1549334615.8,286046998.6,N
1549334635.6,286047001.2,N
1549334655.5,286046998.1,N
1549334675.3,286046998.4,N
1549334695.2,286047001.0,N
1549334715.0,286047000.3,N
1549334715.9,286047000.3,N
1549334735.7,286047000.4,N
1549334755.6,286047000.2,N
1549334775.4,286047000.0,N
1549334795.3,286047002.7,N
1549334815.1,286047002.3,N
1549334835.8,286047000.5,N
1549334855.7,286047001.2,N
1549334875.5,286046998.1,N
1549334895.4,286046998.5,N
1549334915.2,286046998.4,N
1549334935.0,286046998.1,N
1549334935.9,286046998.1,N
1549334955.8,286047001.0,N
1549334975.6,286047000.9,N
1549334995.4,286046999.0,N
1549335015.3,286046999.6,N
1549335035.1,286047000.6,N
1549335055.9,286046998.2,N
1549335075.7,286047000.9,N
1549335095.5,286047000.6,N
1549335115.4,286047000.6,N
1549335135.2,286047000.4,N
1549335155.1,286047001.0,N
1549335156.0,286047001.0,N
1549335175.8,286047002.7,N
1549335195.6,286047000.0,N
1549335215.5,286047000.4,N
1549335235.3,286047000.9,N
1549335255.1,286047000.2,N
1549335275.9,286047002.8,N
1549335295.7,286046999.7,N
1549335315.6,286047000.1,N
1549335335.4,286046998.2,N
1549335355.2,286046998.4,N
1549335375.1,286046998.5,N
1549335376.0,286046998.5,N
1549335395.8,286046998.4,N
1549335415.7,286046998.2,N
1549335435.5,286047001.0,N
1549335455.3,286046998.3,N
1549335475.2,286046998.3,N
1549335495.0,286047000.5,N
1549335495.9,286047000.5,N
1549335515.7,286047000.6,N
1549335535.6,286047000.9,N
1549335555.4,286047000.6,N
1549335575.3,286047000.1,N
1549335595.1,286047002.8,N
1549335596.0,286047002.8,N
